Weather History for Gage, OK

Change the Weather History Date:

Tuesday, February 5, 2013

  Actual Average Record
Temperature  
Mean Temperature 45 °F -  
Max Temperature 66 °F 47 °F 81 °F (1963)
Min Temperature 24 °F 21 °F -2 °F (1989)
Degree Days  
Heating Degree Days 20    
Moisture  
Dew Point 22 °F    
Average Humidity 48    
Maximum Humidity 81    
Minimum Humidity 17    
Precipitation  
Precipitation 0.00 in - - ()
Sea Level Pressure  
Sea Level Pressure 29.99 in    
Wind  
Wind Speed 5 mph (South)    
Max Wind Speed 14 mph    
Max Gust Speed -    
Visibility 10 miles    
Events      
Averages and records for this station are not official NWS values.
T = Trace of Precipitation, MM = Missing Value Source: NWS Daily Summary

Daily Weather History Graph

Daily Weather History Graph

Search for Another Location

Airport:

Trip Planner

Search our weather history database for the weather conditions in past years. The results will help you decide how hot, cold, wet, or windy it might be!

Date:

Astronomy

Feb. 05, 2013 Rise Set
Actual Time 7:36 AM CST 6:10 PM CST
Civil Twilight 7:09 AM CST 6:36 PM CST
Nautical Twilight 6:39 AM CST 7:07 PM CST
Astronomical Twilight 6:09 AM CST 7:37 PM CST
Moon 3:17 AM CST (2/5) 1:32 PM CST (2/5)
Length of Visible Light 11h 27m
Length of Day
10h 33m
Waning Crescent, 26% of the Moon is Illuminated
Feb 5
Waning Crescent
Feb 10
New
Feb 17
First Quarter
Feb 25
Full
Mar 4
Last Quarter

Hourly Weather History & Observations

Time (CST) Temp. Windchill Dew Point Humidity Pressure Visibility Wind Dir Wind Speed Gust Speed Precip Events Conditions
12:53 AM 32.0 °F 27.5 °F 21.9 °F 66% 29.94 in 10.0 mi SSW 4.6 mph - N/A   Clear
1:53 AM 28.0 °F - 19.9 °F 72% 29.93 in 10.0 mi Calm Calm - N/A   Clear
2:53 AM 27.0 °F - 19.0 °F 72% 29.93 in 10.0 mi Calm Calm - N/A   Clear
3:53 AM 28.0 °F 20.8 °F 21.0 °F 75% 29.93 in 10.0 mi WSW 6.9 mph - N/A   Clear
4:53 AM 27.0 °F 21.6 °F 21.0 °F 78% 29.92 in 10.0 mi WSW 4.6 mph - N/A   Clear
5:53 AM 24.1 °F 18.2 °F 19.0 °F 81% 29.95 in 10.0 mi West 4.6 mph - N/A   Clear
6:53 AM 25.0 °F 18.1 °F 19.9 °F 81% 29.99 in 10.0 mi WSW 5.8 mph - N/A   Clear
7:53 AM 27.0 °F 21.6 °F 21.0 °F 78% 30.04 in 10.0 mi WSW 4.6 mph - N/A   Clear
8:53 AM 36.0 °F 33.3 °F 25.0 °F 64% 30.03 in 10.0 mi South 3.5 mph - N/A   Clear
9:53 AM 43.0 °F - 26.1 °F 51% 30.04 in 10.0 mi Calm Calm - N/A   Clear
10:53 AM 52.0 °F - 27.0 °F 38% 30.05 in 10.0 mi Calm Calm - N/A   Clear
11:53 AM 59.0 °F - 26.1 °F 28% 30.04 in 10.0 mi Calm Calm - N/A   Clear
12:53 PM 62.1 °F - 24.1 °F 23% 30.02 in 10.0 mi Variable 4.6 mph - N/A   Clear
1:53 PM 64.9 °F - 23.0 °F 20% 30.00 in 10.0 mi NE 4.6 mph - N/A   Clear
2:53 PM 66.9 °F - 21.0 °F 17% 29.98 in 10.0 mi NE 4.6 mph - N/A   Clear
3:53 PM 66.0 °F - 21.0 °F 18% 29.97 in 10.0 mi ENE 6.9 mph - N/A   Clear
4:53 PM 64.9 °F - 19.9 °F 18% 29.97 in 10.0 mi ENE 4.6 mph - N/A   Clear
5:53 PM 59.0 °F - 19.9 °F 22% 29.98 in 10.0 mi East 4.6 mph - N/A   Clear
6:53 PM 50.0 °F - 21.0 °F 32% 30.01 in 10.0 mi ESE 5.8 mph - N/A   Clear
7:53 PM 45.0 °F 39.3 °F 21.9 °F 40% 30.02 in 10.0 mi SSE 11.5 mph - N/A   Clear
8:53 PM 45.0 °F 38.9 °F 23.0 °F 42% 30.02 in 10.0 mi South 12.7 mph - N/A   Clear
9:53 PM 46.0 °F 40.6 °F 24.1 °F 42% 30.01 in 10.0 mi South 11.5 mph - N/A   Clear
10:53 PM 48.0 °F - 27.0 °F 44% 29.99 in 10.0 mi South 13.8 mph - N/A   Clear
11:53 PM 44.1 °F 38.1 °F 27.0 °F 51% 29.98 in 9.0 mi South 11.5 mph - N/A   Clear